Showing default

SHIYAN 20C (SY-20C), 54214

Orbit data source: Space-Track

SHIYAN 20C (SY-20C), 54214 is a payload satellite owned by CASC (CN) in LEO that was launched on Sat, 29 Oct 2022 UTC via a CHANG ZHENG 2D launch vehicle from the Jiuquan Satellite Launch Center, China (JSC). Payload-class satellites include a variety of spacecraft equipped with specific instruments for various scientific and technological missions. These include communications satellites like Starlink; space stations such as the ISS; scientific satellites like the Hubble; Earth observation satellites from companies like Planet Labs, Umbra, and HawkEye 360; GPS; miniature CubeSats for education and research; and military/defense satellites.

Loading next visibility...
Identifier
54214, 2022-142A
Orbit
LEO
Country
Flag of CNCN / PRC
Related business
Manufacturer
IMI/CAS
Mission
Operational Defense Technology
Bus & Motor
Unknown
Mass
1,300 kg wet, ~1,300 kg dry
Launch date (UTC)
2022-10-29 (4 years ago)
Launch vehicle
CHANG ZHENG 2D
Launch site
Jiuquan Satellite Launch Center, China (JSC)
Object type
Payload
Rocket body
Debris
Shape & HBR
Box + 2 Pan, 2.5 m
Radar Cross Section
11.063 m², Large (>1 m²)

Expand to show TLE details & history
Last TLE update: 21 hours ago

TLE from 21 hours ago
0 SHIYAN 20C (SY-20C)
1 54214U 22142A   26172.57917752 -.00000031  00000-0  41201-4 0  9995
2 54214  59.9971 285.8360 0011141 335.6553  24.3954 14.29556524190323
Epoch: 2026-06-21T13:54Z
TLE epoch observation values (Epoch: 2026-06-21T13:54:00.937Z)
Latitude
-0.00007°
Longitude
167.55463°
Altitude
787.47 km
Speed
7.465 km/s
True Right ascension
19h 03m 20s
True Declination
0° 00' 00"
Sunlit
Object was in full shadow at epoch
Visualization orbit readout
Latitude
Unknown
Longitude
Unknown
Altitude
Unknown
Speed
Unknown
Apparent Right ascension
Unknown
Apparent Declination
Unknown
Sunlit
N/A
Visualization observer readout
Local Sidereal Time
21:33:30
Azimuth
Unknown
Elevation
Unknown
Doppler factor
Unknown
Orbital elements
Apogee altitude
800.44 km
Perigee altitude
784.462 km
Semi-major axis
7,170.588 km
Eccentricity
0.00111
Inclination
59.9971°
RAAN
285.836°
Arg. of periapsis
335.6553°
True anomaly
24.4482°
Mean anomaly
24.3954°
Eccentric anomaly
24.42179°
Mean motion
3.57446 °/min
Orbital period
100.71 mins
BSTAR
0.000041201
Loading maneuver chart data...
Computing Atmospheric mass density...
Loading historical data...
Loading historical data...
Loading historical data...
Loading historical data...
Loading historical data...
Loading historical data...
Loading historical data...
Other satellites on launch #142 in the year 2022 (2022-10-29 UTC)

Documentation

Showing up to 5 results
|